Location: Unspecified
(0.0000°N, 0.0000°E)
Time: 01:26:21
(UTC+00:00)

Vanguard 1 - Pass Details

Date: 26 November 2019
Orbit: 652 x 3832 km, 34.3° (Epoch: 10 December)

Event Time Altitude Azimuth Distance (km) Brightness Sun altitude
Rises 04:54:27 0° 236° (SW) 7,744 14.3 -12.3°
Reaches altitude 10° 04:59:31 10° 237° (WSW) 6,863 14.0 -11.1°
Maximum altitude 05:23:24 77° 320° (NW) 3,529 12.8 -5.5°
Drops below altitude 10° 05:40:19 10° 46° (NE) 5,121 14.1 -1.6°
Sets 05:43:30 0° 48° (NE) 5,790 14.4 -0.9°
